Content
SEND FEEDBACK

Daily
Averages
Monthly
Summary
United States of America

HUNTINGTON, WEST VIRGINIA


Home > North America > United States > West Virginia
Elevation: 221 meters     Latitude: 38 22N     Longitude: 082 33W

WEATHER
 
SELECT A DAY
Number of Records: 223,190;   Date Range: 1/1/95 - 12/24/14
 
SHARE

PRINT THIS DATA

[ ← Previous Day ]
WEATHER ALMANAC - 31 JANUARY, 2013
[ Next Day → ]
[ °F ]   °C
Weather ElementAverageHighLow
Temperature-0.2 °C5 °C (9:55 pm)-2 °C (8:51 am)
Dewpoint-4.4 °C2 °C (12:47 am)-7.2 °C (6:51 am)
Humidity74.7 %100 % (11:46 pm)53 % (9:55 pm)
Barometer1011.2 hPa1014.6 hPa (3:51 pm)1001 hPa (12:47 am)
Wind Speed16.4 km/h35.2 km/h (1:11 am)
Wind Gust61.2 km/h (1:11 am)
Weather ElementAverage
Visibility9.2 km
Wind DirectionWSW (244.2 °)

Weather ElementTotal
Precipitation5.08 mm
Heating Degree Days16.8 (Base 18.3)
Averaged from 53 records on 31 January, 2013
WEATHER CONDITIONS BREAKOUT
WIND DIRECTION BREAKOUT
WEATHER BY HOUR - 31 JANUARY, 2013
[ °F ]   °C
Local TimeTemperatureDewpointHumidityBarometerVisibilityWind DirectionWind SpeedGust SpeedPrecipitationEventsConditions
12:47 AM4 °C2 °C87 %1001 hPa16.1 kmWest (260°)20.4 km/h33.3 km/h0.51 mmOvercast
12:51 AM4 °C2 °C87 %1001.4 hPa16.1 kmWSW (250°)24.1 km/h35.2 km/h0.51 mmOvercast
1:11 AM3 °C0 °C81 %1001.7 hPa16.1 kmWest (260°)35.2 km/h61.2 km/h0 mmOvercast
1:51 AM3 °C0 °C81 %1003.4 hPa14.5 kmWest (270°)18.5 km/h50.1 km/h0 mmSnowLight Snow
2:51 AM2 °C-3 °C70 %1004.7 hPa16.1 kmWSW (250°)27.8 km/h42.6 km/h0 mmOvercast
3:51 AM1 °C-4.4 °C68 %1005.8 hPa16.1 kmWest (270°)24.1 km/h50.1 km/h0 mmOvercast
4:09 AM2 °C-5 °C60 %1006.1 hPa16.1 kmWest (270°)22.2 km/h40.7 km/hOvercast
4:51 AM0 °C-4.4 °C73 %1006.8 hPa16.1 kmWest (260°)22.2 km/h37 km/h0 mmOvercast
5:51 AM0 °C-5.5 °C67 %1007.8 hPa16.1 kmWest (260°)18.5 km/h38.9 km/h0 mmOvercast
5:59 AM1 °C-6 °C60 %1007.5 hPa16.1 kmWSW (250°)20.4 km/h51.8 km/hOvercast
6:32 AM0 °C-6 °C64 %1008.8 hPa8 kmWSW (250°)18.5 km/h38.9 km/h0 mmSnowLight Snow
6:43 AM1 °C-7 °C56 %1008.8 hPa14.5 kmWest (260°)25.9 km/h48.1 km/h0 mmOvercast
6:51 AM0.6 °C-7.2 °C56 %1009.1 hPa16.1 kmWest (270°)20.4 km/h38.9 km/h0 mmOvercast
7:51 AM-1 °C-7.2 °C63 %1010.2 hPa16.1 kmWest (260°)24.1 km/h44.4 km/h0 mmOvercast
8:51 AM-2 °C-7 °C69 %1011.5 hPa14.5 kmWSW (240°)25.9 km/h35.2 km/h0 mmOvercast
9:51 AM-2 °C-6 °C74 %1012.5 hPa4 kmWest (260°)11.1 km/h33.3 km/h0 mmSnowLight Snow
10:04 AM-2 °C-5 °C80 %1012.5 hPa1.6 kmWSW (250°)13 km/h35.2 km/h0 mmSnowLight Snow
10:19 AM-2 °C-4 °C86 %1012.5 hPa1.6 kmWest (260°)16.7 km/h0 mmSnowLight Snow
10:51 AM-2 °C-4 °C86 %1013.5 hPa1.6 kmWSW (240°)16.7 km/h29.6 km/h0 mmSnowLight Snow
11:08 AM-2 °C-4 °C86 %1012.9 hPa9.7 kmWest (260°)24.1 km/h31.5 km/h0 mmSnowLight Snow
11:45 AM-2 °C-4 °C86 %1013.2 hPa1.6 kmWest (260°)16.7 km/h48.1 km/h0 mmSnowLight Snow
11:51 AM-1 °C-5 °C75 %1013.9 hPa1.3 kmWest (280°)24.1 km/h42.6 km/h0 mmSnowLight Snow
11:55 AM-1 °C-5 °C75 %1013.5 hPa6.4 kmWNW (290°)18.5 km/h37 km/h0 mmSnowLight Snow
12:19 PM-1 °C-4 °C80 %1013.5 hPa16.1 kmWest (260°)18.5 km/h55.5 km/h0 mmOvercast
12:51 PM0 °C-7 °C60 %1013.9 hPa16.1 kmWest (270°)14.8 km/h44.4 km/h0 mmMostly Cloudy
1:51 PM0 °C-7 °C60 %1013.9 hPa16.1 kmWest (260°)29.6 km/h48.1 km/hOvercast
2:51 PM-1 °C-7 °C64 %1014.2 hPa9.7 kmWest (260°)22.2 km/h42.6 km/h0 mmHaze
3:04 PM2 °C-6 °C56 %1013.5 hPa3.2 kmSW (230°)16.7 km/h37 km/h0 mmSnowLight Snow
3:08 PM-2 °C-4 °C86 %1013.5 hPa1.9 kmWSW (250°)11.1 km/h27.8 km/h0 mmSnowLight Snow
3:16 PM-2 °C-4 °C86 %1013.9 hPa0.3 kmWest (260°)14.8 km/h0 mmFog-SnowSnow
3:34 PM-2 °C-4 °C86 %1013.9 hPa4 kmWest (260°)18.5 km/h0.51 mmSnowLight Snow
3:49 PM-2 °C-4 °C86 %1013.5 hPa4 kmWSW (250°)14.8 km/h35.2 km/h0.51 mmSnowLight Snow
3:51 PM-2 °C-4 °C86 %1014.6 hPa6.4 kmWest (270°)18.5 km/h35.2 km/h0.51 mmSnowLight Snow
4:18 PM-2 °C-4 °C86 %1013.9 hPa4.8 kmWest (260°)14.8 km/h33.3 km/h0 mmSnowLight Snow
4:29 PM-2 °C-4 °C86 %1013.9 hPa11.3 kmWest (260°)16.7 km/h27.8 km/h0 mmSnowLight Snow
4:51 PM-1 °C-5 °C75 %1014.6 hPa4.8 kmWSW (250°)20.4 km/h29.6 km/h0 mmSnowLight Snow
5:35 PM-1 °C-5 °C75 %1013.9 hPa16.1 kmWSW (250°)14.8 km/h0 mmMostly Cloudy
5:51 PM-1 °C-5 °C75 %1014.2 hPa16.1 kmWSW (240°)13 km/h0 mmOvercast
6:51 PM0 °C-7.2 °C59 %1013.9 hPa16.1 kmSW (230°)9.3 km/hOvercast
7:51 PM0 °C-6.7 °C61 %1014.2 hPa16.1 kmWSW (240°)9.3 km/hOvercast
8:51 PM0 °C-6.7 °C61 %1013.9 hPa11.3 kmSW (230°)13 km/h0 mmSnowLight Snow
9:10 PM0 °C-5 °C69 %1012.9 hPa4.8 kmSW (220°)13 km/h0 mmSnowLight Snow
9:51 PM0 °C-5 °C69 %1013.5 hPa4.8 kmSW (220°)14.8 km/h0 mmSnowLight Snow
9:55 PM5 °C-4 °C53 %1012.5 hPa9.7 kmSW (230°)9.3 km/h0 mm
10:01 PM-1 °C-4 °C80 %1012.5 hPa9.7 kmWSW (240°)11.1 km/h0 mmSnowLight Snow
10:16 PM-1 °C-4 °C80 %1012.5 hPa9.7 kmWest (260°)9.3 km/h0 mmSnowLight Snow
10:26 PM-1 °C-4 °C80 %1012.2 hPa2.9 kmWest (260°)5.6 km/h0 mmSnowLight Snow
10:51 PM-1 °C-4 °C80 %1012.9 hPa2.4 kmSW (230°)7.4 km/h0.25 mmSnowLight Snow
11:03 PM3 °C-3 °C65 %1011.9 hPa1.9 kmWSW (240°)5.6 km/h0 mmSnowLight Snow
11:28 PM4 °C-2 °C65 %1011.9 hPa1.3 kmWSW (240°)5.6 km/h0.51 mm
11:46 PM-2 °C-2 °C100 %1011.5 hPa1.6 kmCalm0.76 mmSnowLight Snow
11:51 PM-2 °C-2.2 °C99 %1012.5 hPa1.9 kmCalm0.76 mmSnowLight Snow
11:57 PM-2 °C-2 °C100 %1011.9 hPa1.3 kmWNW (290°)7.4 km/h0.25 mmSnowLight Snow
Hourly data recorded from KHTS, located 0 kilometers away from Huntington, West Virginia







STORIES FROM OUR PARTNERS